DW6399 Weather Reports


Display with metric or nautical units.
time (UTC)temp
F
wind
direction
speed
MPH
gust
MPH
rain 1hr
in
rain 24hr
in
rain mn
in
humidity
%
barometer
mb
20220529045404 49 11 1.0 4.0 0.00 0.07 0.00 88 1003.1
20220529044505 48 352 1.0 3.0 0.00 0.07 0.00 88 1003.0
20220529043605 48 360 1.0 4.0 0.00 0.07 0.00 88 1003.0
20220529042704 47 6 1.0 4.0 0.00 0.08 0.00 88 1003.0
20220529041804 47 360 1.0 4.0 0.00 0.08 0.00 88 1002.9
20220529040904 47 0 0.0 3.0 0.00 0.08 0.00 89 1002.9
20220529040004 47 346 1.0 4.0 0.00 0.08 0.00 89 1002.8
20220529035404 46 348 1.0 3.0 0.00 0.08 0.00 89 1002.8
20220529034504 46 341 1.0 3.0 0.00 0.08 0.00 90 1002.7
20220529033604 46 329 2.0 5.0 0.00 0.08 0.00 90 1002.6
20220529032704 46 335 2.0 8.0 0.00 0.08 0.00 90 1002.6
20220529031805 45 336 2.0 6.0 0.00 0.08 0.00 90 1002.5
20220529030905 45 334 2.0 5.0 0.00 0.08 0.00 89 1002.6
20220529030004 45 336 2.0 6.0 0.00 0.08 0.00 89 1002.6
20220529025404 45 348 1.0 5.0 0.00 0.08 0.00 89 1002.6
20220529024504 45 340 1.0 3.0 0.00 0.09 0.00 89 1002.6
20220529023604 45 344 1.0 4.0 0.00 0.09 0.00 89 1002.5
20220529022704 45 341 2.0 5.0 0.00 0.09 0.00 89 1002.4
20220529021804 45 342 1.0 6.0 0.00 0.09 0.00 89 1002.4
20220529020904 44 349 1.0 4.0 0.00 0.10 0.00 90 1002.4
20220529020004 44 357 1.0 4.0 0.00 0.10 0.00 90 1002.3
20220529015404 44 352 2.0 4.0 0.00 0.10 0.00 90 1002.2
20220529014504 44 351 2.0 5.0 0.00 0.10 0.00 90 1002.2
20220529013604 44 346 2.0 5.0 0.00 0.11 0.00 90 1002.2
20220529012704 44 347 1.0 3.0 0.00 0.11 0.00 90 1002.2
20220529011804 44 343 1.0 4.0 0.00 0.11 0.00 90 1002.0
20220529010904 44 347 2.0 5.0 0.00 0.11 0.00 90 1002.0
20220529010004 44 341 2.0 5.0 0.00 0.11 0.00 90 1002.0
20220529005404 44 344 2.0 5.0 0.00 0.11 0.00 90 1002.0
20220529004504 44 334 2.0 8.0 0.00 0.13 0.00 90 1001.9
20220529003604 44 337 2.0 5.0 0.00 0.13 0.00 90 1002.1
20220529002705 44 340 1.0 3.0 0.00 0.13 0.00 89 1002.0
20220529001804 44 359 1.0 3.0 0.00 0.13 0.00 89 1002.1
20220529000904 44 347 2.0 5.0 0.00 0.13 0.00 89 1001.9
20220529000004 44 339 2.0 5.0 0.00 0.14 0.00 90 1001.8
20220528235406 44 339 2.0 5.0 0.00 0.14 0.00 90 1001.8
20220528234504 44 337 2.0 5.0 0.00 0.14 0.00 90 1001.9
20220528233604 44 336 1.0 4.0 0.00 0.14 0.00 89 1001.9
20220528232704 44 341 2.0 5.0 0.00 0.14 0.00 89 1002.0
20220528231804 44 338 2.0 7.0 0.00 0.14 0.00 89 1002.0
20220528230904 44 344 2.0 7.0 0.00 0.15 0.00 88 1002.0
20220528230004 44 350 2.0 5.0 0.00 0.15 0.00 88 1002.0
20220528225404 44 344 2.0 6.0 0.00 0.15 0.00 88 1002.0
20220528224504 44 347 2.0 9.0 0.00 0.16 0.00 88 1002.0
20220528223603 45 350 1.0 5.0 0.00 0.16 0.00 88 1002.0
20220528222704 45 352 1.0 5.0 0.00 0.16 0.00 88 1002.0
20220528221804 45 348 2.0 7.0 0.00 0.16 0.00 88 1001.9
20220528220904 45 350 2.0 6.0 0.00 0.16 0.00 88 1001.9
20220528220004 45 348 2.0 7.0 0.00 0.16 0.00 88 1001.9
20220528215404 45 349 3.0 7.0 0.00 0.16 0.00 88 1001.8
20220528214504 45 343 3.0 8.0 0.00 0.16 0.00 89 1001.8
20220528213604 45 346 2.0 6.0 0.00 0.16 0.00 89 1001.8
20220528212705 45 346 2.0 6.0 0.00 0.17 0.00 89 1001.7
20220528211804 45 345 2.0 5.0 0.00 0.17 0.00 89 1001.8
20220528210904 45 348 1.0 4.0 0.00 0.17 0.00 89 1001.8
20220528210006 44 344 1.0 5.0 0.00 0.17 0.00 89 1001.7
20220528205404 45 0 0.0 5.0 0.00 0.18 0.17 90 1001.7
20220528204504 45 0 0.0 0.0 0.00 0.18 0.17 89 1001.7
20220528203604 45 0 0.0 0.0 0.00 0.18 0.17 90 1001.7
20220528202703 45 0 0.0 2.0 0.00 0.19 0.17 90 1001.7
20220528201804 45 0 0.0 2.0 0.00 0.19 0.17 89 1001.6
20220528200905 45 0 0.0 4.0 0.00 0.19 0.17 89 1001.6
20220528200004 45 0 0.0 0.0 0.00 0.19 0.17 89 1001.6
20220528195403 46 0 0.0 0.0 0.00 0.19 0.17 89 1001.6
20220528194504 46 0 0.0 2.0 0.00 0.19 0.17 89 1001.4
20220528193604 46 0 0.0 2.0 0.00 0.19 0.17 88 1001.4
20220528192704 46 0 0.0 0.0 0.00 0.19 0.17 88 1001.3
20220528191803 46 0 0.0 0.0 0.00 0.19 0.17 87 1001.3
20220528190904 47 0 0.0 0.0 0.00 0.19 0.17 87 1001.2
20220528190004 47 0 0.0 2.0 0.00 0.19 0.17 85 1001.2
20220528185404 48 0 0.0 2.0 0.00 0.19 0.17 84 1001.1
20220528184504 49 0 0.0 0.0 0.00 0.19 0.17 83 1001.2
20220528183604 49 0 0.0 0.0 0.00 0.19 0.17 83 1001.1
20220528182704 48 0 0.0 0.0 0.00 0.19 0.17 85 1001.0
20220528181805 48 0 0.0 1.0 0.00 0.19 0.17 85 1001.0
20220528180904 48 0 0.0 0.0 0.00 0.19 0.17 84 1000.9
20220528180004 49 0 0.0 0.0 0.00 0.19 0.17 84 1000.9
20220528175404 50 0 0.0 2.0 0.00 0.19 0.17 82 1000.9
20220528174503 51 0 0.0 0.0 0.00 0.19 0.17 81 1000.8
20220528173604 51 325 1.0 5.0 0.00 0.19 0.17 82 1000.8
20220528172704 50 317 1.0 5.0 0.00 0.19 0.17 83 1000.7
20220528171805 50 318 3.0 7.0 0.00 0.19 0.17 84 1000.7
20220528170904 50 317 2.0 7.0 0.00 0.19 0.17 83 1000.6
20220528170005 50 318 2.0 5.0 0.00 0.19 0.17 83 1000.5
20220528165404 50 319 2.0 4.0 0.00 0.19 0.17 82 1000.5
20220528164504 50 319 1.0 5.0 0.00 0.19 0.17 81 1000.5
20220528163604 51 0 0.0 4.0 0.00 0.19 0.17 81 1000.5
20220528162704 50 0 0.0 0.0 0.00 0.19 0.17 80 1000.4
20220528161805 51 0 0.0 2.0 0.00 0.19 0.17 79 1000.4
20220528160904 50 64 0.0 2.0 0.00 0.19 0.17 80 1000.3
20220528160004 50 318 3.0 7.0 0.00 0.19 0.17 80 1000.3
20220528155404 50 314 2.0 7.0 0.00 0.19 0.17 80 1000.2
20220528154504 52 327 1.0 5.0 0.00 0.19 0.17 79 1000.1
20220528153604 51 327 1.0 3.0 0.00 0.19 0.17 81 1000.1
20220528152704 50 0 0.0 1.0 0.00 0.19 0.17 82 1000.0
20220528151805 50 347 0.0 3.0 0.00 0.19 0.17 82 999.9
20220528150904 50 323 1.0 5.0 0.00 0.19 0.17 82 999.8
20220528150004 50 320 1.0 3.0 0.00 0.19 0.17 83 999.7
20220528145404 50 7 1.0 3.0 0.00 0.19 0.17 82 999.8
20220528144504 50 26 1.0 3.0 0.00 0.19 0.17 81 999.7
20220528143604 50 15 0.0 4.0 0.00 0.19 0.17 81 999.6
20220528142704 50 0 0.0 2.0 0.00 0.19 0.17 83 999.6
20220528141804 50 336 1.0 2.0 0.00 0.19 0.17 84 999.4
20220528140904 49 320 2.0 4.0 0.00 0.19 0.17 85 999.3
20220528140004 49 326 1.0 5.0 0.00 0.19 0.17 84 999.2
20220528135404 49 334 1.0 4.0 0.00 0.19 0.17 86 999.2
20220528134504 49 333 1.0 2.0 0.00 0.19 0.17 86 999.1
20220528133604 48 317 1.0 4.0 0.00 0.19 0.17 87 999.0
20220528132704 48 323 2.0 4.0 0.00 0.19 0.17 87 999.0
20220528131804 48 318 2.0 5.0 0.00 0.19 0.17 87 998.8
20220528130904 48 325 1.0 4.0 0.00 0.19 0.17 88 998.8
20220528130003 48 314 1.0 3.0 0.00 0.19 0.17 88 998.7
20220528125403 48 313 2.0 3.0 0.00 0.19 0.17 88 998.7
20220528124504 47 316 1.0 4.0 0.00 0.19 0.17 88 998.6
20220528123604 47 308 1.0 3.0 0.00 0.19 0.17 87 998.6
20220528122703 47 296 2.0 4.0 0.00 0.19 0.17 87 998.4
20220528121805 47 293 2.0 4.0 0.00 0.19 0.17 86 998.3
20220528120903 48 314 2.0 4.0 0.00 0.19 0.17 86 998.2
20220528120004 48 305 1.0 4.0 0.00 0.19 0.17 85 998.1
20220528115405 49 0 0.0 4.0 0.00 0.19 0.17 83 998.1
20220528114504 49 0 0.0 2.0 0.00 0.19 0.17 81 998.0
20220528113603 49 0 0.0 2.0 0.00 0.19 0.17 82 997.9
20220528112704 49 111 1.0 2.0 0.00 0.19 0.17 82 997.7
20220528111804 49 103 1.0 3.0 0.00 0.19 0.17 82 997.7
20220528110903 49 115 1.0 3.0 0.00 0.19 0.17 85 997.6
20220528110004 48 202 0.0 3.0 0.00 0.19 0.17 83 997.4
20220528105405 48 0 0.0 3.0 0.00 0.19 0.17 84 997.4
20220528104504 48 0 0.0 2.0 0.00 0.19 0.17 84 997.4
20220528103603 47 113 0.0 3.0 0.00 0.19 0.17 86 997.3
20220528102703 47 113 1.0 2.0 0.01 0.19 0.17 87 997.2
20220528101804 47 0 0.0 3.0 0.01 0.19 0.17 87 997.1
20220528100904 47 112 0.0 2.0 0.01 0.19 0.17 89 997.0
20220528100003 47 103 1.0 2.0 0.01 0.19 0.17 88 997.0
20220528095404 47 0 0.0 2.0 0.01 0.19 0.17 88 996.9
20220528094505 47 0 0.0 4.0 0.01 0.19 0.17 88 996.9
20220528093603 46 0 0.0 2.0 0.02 0.19 0.17 87 996.8
20220528092703 46 48 0.0 1.0 0.01 0.18 0.16 89 996.7
20220528091803 46 315 1.0 2.0 0.01 0.18 0.16 89 996.6
20220528090903 45 320 0.0 4.0 0.01 0.18 0.16 89 996.5
20220528090005 45 0 0.0 2.0 0.01 0.18 0.16 90 996.4
20220528085404 45 0 0.0 2.0 0.01 0.18 0.16 90 996.3
20220528084503 45 0 0.0 3.0 0.01 0.18 0.16 90 996.2
20220528083604 45 0 0.0 0.0 0.00 0.17 0.15 91 996.1
20220528082704 45 320 2.0 4.0 0.00 0.17 0.15 91 995.9
20220528081803 44 313 1.0 4.0 0.00 0.17 0.15 91 995.7
20220528080903 44 334 1.0 3.0 0.00 0.17 0.15 91 995.6
20220528080003 44 0 0.0 4.0 0.01 0.17 0.15 92 995.5
20220528075405 44 0 0.0 2.0 0.01 0.17 0.15 92 995.3
20220528074503 44 0 0.0 3.0 0.01 0.17 0.15 92 995.3
20220528073603 44 330 1.0 2.0 0.01 0.17 0.15 93 995.1
20220528072703 44 321 1.0 4.0 0.01 0.17 0.15 93 995.0
20220528071804 44 320 1.0 3.0 0.02 0.17 0.15 93 994.9
20220528070903 43 322 2.0 3.0 0.02 0.17 0.15 93 994.8
20220528070005 43 322 1.0 4.0 0.01 0.16 0.14 93 994.6
20220528065404 43 319 1.0 4.0 0.01 0.16 0.14 94 994.4
20220528064504 43 309 0.0 3.0 0.02 0.16 0.14 94 994.4
20220528063603 43 315 2.0 3.0 0.02 0.16 0.14 94 994.2
20220528062703 43 316 2.0 5.0 0.02 0.16 0.14 94 994.0
20220528061804 43 312 0.0 4.0 0.01 0.15 0.13 94 994.0
20220528060904 43 0 0.0 2.0 0.01 0.15 0.13 94 993.9
20220528060003 43 0 0.0 2.0 0.01 0.15 0.13 94 993.8
20220528055403 43 0 0.0 2.0 0.02 0.15 0.13 94 993.7
20220528054504 43 313 0.0 2.0 0.01 0.14 0.11 94 993.5
20220528053604 43 332 1.0 4.0 0.01 0.14 0.11 94 993.4
20220528052703 43 317 1.0 4.0 0.02 0.14 0.11 94 993.3
20220528051805 43 320 2.0 5.0 0.02 0.14 0.11 94 993.2
20220528050904 42 317 1.0 6.0 0.02 0.14 0.11 94 993.1
20220528050004 43 323 2.0 5.0 0.02 0.14 0.11 94 993.0